Location: Seattle
(47.6064°N, 122.3308°W)
Time: 17:46:55
(UTC-08:00)

ISS - Visible Passes

Search period start: 28 November 2022 00:00
Search period end: 08 December 2022 00:00
Orbit: 411 x 420 km, 51.6° (Epoch: 28 November)

Date Brightness Start Highest point End Pass type
(mag) Time Alt. Az. Time Alt. Az. Time Alt. Az.
28 Nov -3.0 17:21:31 10° WNW 17:24:41 39° N 17:26:55 17° ENE visible
28 Nov -1.4 18:58:27 10° WNW 18:59:48 22° WNW 18:59:48 22° WNW visible
29 Nov -3.4 18:09:44 10° WNW 18:13:00 48° NNE 18:13:06 47° NNE visible
30 Nov -3.2 17:20:58 10° WNW 17:24:11 41° N 17:26:25 17° ENE visible
30 Nov -1.6 18:57:45 10° WNW 18:59:19 25° WNW 18:59:19 25° WNW visible
01 Dec -3.9 18:09:00 10° WNW 18:12:20 75° NNE 18:12:41 65° ENE visible
02 Dec -3.6 17:20:13 10° WNW 17:23:31 57° NNE 17:26:10 15° E visible
02 Dec -1.7 18:57:04 10° WNW 18:59:03 27° WSW 18:59:03 27° WSW visible
03 Dec -3.2 18:08:08 10° WNW 18:11:25 55° SSW 18:12:39 32° SSE visible
04 Dec -3.7 17:19:16 10° WNW 17:22:37 83° SSW 17:25:57 10° ESE visible
04 Dec -1.1 18:56:46 10° W 18:58:54 16° SW 18:59:22 16° SSW visible
05 Dec -1.6 18:07:26 10° W 18:10:13 25° SW 18:13:01 10° SSE visible
06 Dec -2.3 17:18:19 10° WNW 17:21:27 39° SW 17:24:35 10° SE visible
07 Dec -0.4 18:07:46 10° WSW 18:08:44 11° SW 18:09:42 10° SSW visible
